Location: Putah Creek Observatory
(38.7021°N, 122.3865°W)
Time: 10:12:52
(UTC-07:00)

Cosmos 1092 Rocket - Pass Details

Date: 27 May 2018
Orbit: 955 x 994 km, 82.9° (Epoch: 18 October)

Event Time Altitude Azimuth Distance (km) Brightness Sun altitude
Rises 22:45:34 0° 354° (N) 3,719 8.1 -21.3°
Reaches altitude 10° 22:48:06 10° 356° (N) 2,766 7.2 -21.6°
Maximum altitude 22:54:29 78° 83° (E) 1,015 3.9 -22.3°
Enters shadow 22:56:39 44° 161° (SSE) 1,344 4.2 -22.6°
